When you browse on this site, cookies collect data to enhance your experience and personalize the content and advertising you see.
Visit our Privacy Policy to learn more. By continuing to use the site, you agree to this use of cookies and data.
  • In Sweden
  • List of Countries
  • For 7 days
  • Water Temperature
  • Weather Map
  • Weather Widgets
  • user-avatar
    Login

    Hourly Weather Sárkeresztes

    Today, 22 October, Tuesday

    Time Temperature Precipitation Wind Pressure Humidity
    00:00 +18°C° 0 mm 1 mps 755 mmHg 80%
    01:00 +18°C° 0 mm 1 mps 755 mmHg 82%
    02:00 +18°C° 0 mm 1 mps 755 mmHg 83%
    03:00 +16°C° 0 mm 1 mps 755 mmHg 84%
    04:00 +16°C° 0 mm 1 mps 755 mmHg 84%
    05:00 +16°C° 0 mm 1 mps 755 mmHg 84%
    06:00 +16°C° 0 mm 1 mps 755 mmHg 84%
    07:00 +16°C° 0 mm 1 mps 756 mmHg 81%
    08:00 +19°C° 0 mm 1 mps 756 mmHg 74%
    09:00 +20°C° 0 mm 1 mps 756 mmHg 66%
    10:00 +21°C° 0 mm 2 mps 757 mmHg 58%
    11:00 +24°C° 0 mm 2 mps 756 mmHg 54%
    12:00 +25°C° 0 mm 2 mps 756 mmHg 50%
    13:00 +26°C° 0 mm 3 mps 756 mmHg 47%
    14:00 +25°C° 0 mm 2 mps 756 mmHg 50%
    15:00 +25°C° 0 mm 2 mps 756 mmHg 53%
    16:00 +24°C° 0 mm 1 mps 755 mmHg 56%
    17:00 +23°C° 0 mm 1 mps 755 mmHg 61%
    18:00 +21°C° 0 mm 1 mps 756 mmHg 65%
    19:00 +18°C° 0 mm 0 mps 756 mmHg 70%
    20:00 +18°C° 0 mm 0 mps 756 mmHg 70%
    21:00 +17°C° 0 mm 0 mps 756 mmHg 71%
    22:00 +19°C° 0 mm 1 mps 756 mmHg 72%
    23:00 +19°C° 0 mm 1 mps 756 mmHg 72%

    Tomorrow, 23 October, Wednesday

    Time Temperature Precipitation Wind Pressure Humidity
    00:00 +18°C° 0 mm 1 mps 756 mmHg 72%
    01:00 +18°C° 0 mm 1 mps 755 mmHg 72%
    02:00 +18°C° 0 mm 1 mps 755 mmHg 72%
    03:00 +16°C° 0 mm 1 mps 755 mmHg 71%
    04:00 +16°C° 0 mm 2 mps 755 mmHg 70%
    05:00 +16°C° 0 mm 2 mps 755 mmHg 70%
    06:00 +15°C° 0 mm 2 mps 755 mmHg 71%
    07:00 +15°C° 0 mm 2 mps 755 mmHg 71%
    08:00 +17°C° 0 mm 2 mps 755 mmHg 64%
    09:00 +20°C° 0 mm 3 mps 755 mmHg 56%
    10:00 +22°C° 0 mm 3 mps 755 mmHg 49%
    11:00 +24°C° 0 mm 3 mps 754 mmHg 44%
    12:00 +25°C° 0 mm 4 mps 754 mmHg 39%
    13:00 +27°C° 0 mm 4 mps 754 mmHg 35%
    14:00 +26°C° 0 mm 3 mps 753 mmHg 36%
    15:00 +25°C° 0 mm 3 mps 753 mmHg 38%
    16:00 +24°C° 0 mm 3 mps 752 mmHg 39%
    17:00 +22°C° 0 mm 3 mps 752 mmHg 43%
    18:00 +20°C° 0 mm 3 mps 752 mmHg 46%
    19:00 +19°C° 0 mm 3 mps 752 mmHg 49%
    20:00 +18°C° 0 mm 3 mps 752 mmHg 51%
    21:00 +18°C° 0 mm 3 mps 752 mmHg 53%
    22:00 +17°C° 0 mm 2 mps 752 mmHg 55%
    23:00 +17°C° 0 mm 2 mps 752 mmHg 57%

    Day after tomorrow, 24 October, Thursday

    Time Temperature Precipitation Wind Pressure Humidity
    00:00 +16°C° 0 mm 2 mps 752 mmHg 58%
    01:00 +16°C° 0 mm 2 mps 752 mmHg 60%
    02:00 +15°C° 0 mm 2 mps 751 mmHg 61%
    03:00 +15°C° 0 mm 2 mps 751 mmHg 62%
    04:00 +14°C° 0 mm 2 mps 751 mmHg 64%
    05:00 +14°C° 0 mm 2 mps 751 mmHg 64%
    06:00 +14°C° 0 mm 2 mps 751 mmHg 65%
    07:00 +14°C° 0 mm 2 mps 751 mmHg 65%
    08:00 +16°C° 0 mm 2 mps 751 mmHg 58%
    09:00 +18°C° 0 mm 3 mps 751 mmHg 52%
    10:00 +21°C° 0 mm 3 mps 751 mmHg 45%
    11:00 +22°C° 0 mm 4 mps 750 mmHg 41%
    12:00 +25°C° 0 mm 4 mps 750 mmHg 36%
    13:00 +27°C° 0 mm 5 mps 750 mmHg 32%
    14:00 +26°C° 0 mm 5 mps 749 mmHg 34%
    15:00 +25°C° 0 mm 4 mps 749 mmHg 36%
    16:00 +23°C° 0 mm 4 mps 749 mmHg 38%
    17:00 +22°C° 0 mm 3 mps 749 mmHg 42%
    18:00 +20°C° 0 mm 3 mps 749 mmHg 46%
    19:00 +18°C° 0 mm 3 mps 749 mmHg 51%
    20:00 +18°C° 0 mm 2 mps 750 mmHg 53%
    21:00 +17°C° 0 mm 2 mps 750 mmHg 55%
    22:00 +17°C° 0 mm 2 mps 750 mmHg 57%
    23:00 +16°C° 0 mm 2 mps 750 mmHg 59%

    25 October, Friday

    Time Temperature Precipitation Wind Pressure Humidity
    00:00 +16°C° 0 mm 1 mps 751 mmHg 60%
    01:00 +16°C° 0 mm 1 mps 751 mmHg 62%
    02:00 +15°C° 0 mm 1 mps 751 mmHg 63%
    03:00 +15°C° 0 mm 1 mps 751 mmHg 64%
    04:00 +13°C° 0 mm 0 mps 752 mmHg 66%
    05:00 +14°C° 0 mm 1 mps 752 mmHg 68%
    06:00 +14°C° 0 mm 1 mps 752 mmHg 70%
    07:00 +14°C° 0 mm 2 mps 753 mmHg 72%
    08:00 +16°C° 0 mm 3 mps 753 mmHg 67%
    09:00 +17°C° 0 mm 4 mps 754 mmHg 63%
    10:00 +19°C° 0 mm 5 mps 754 mmHg 58%
    11:00 +20°C° 0 mm 5 mps 754 mmHg 56%
    12:00 +21°C° 0 mm 4 mps 754 mmHg 54%
    13:00 +22°C° 0 mm 4 mps 754 mmHg 53%
    14:00 +21°C° 0 mm 3 mps 754 mmHg 55%
    15:00 +20°C° 0 mm 3 mps 754 mmHg 58%
    16:00 +20°C° 0 mm 2 mps 753 mmHg 60%
    17:00 +19°C° 0 mm 2 mps 754 mmHg 66%
    18:00 +17°C° 0 mm 2 mps 754 mmHg 72%
    19:00 +16°C° 0 mm 1 mps 754 mmHg 78%
    20:00 +15°C° 0 mm 1 mps 754 mmHg 80%
    21:00 +15°C° 0 mm 1 mps 754 mmHg 82%
    22:00 +14°C° 0 mm 1 mps 755 mmHg 84%
    23:00 +13°C° 0 mm 0 mps 754 mmHg 85%

    26 October, Saturday

    Time Temperature Precipitation Wind Pressure Humidity
    00:00 +13°C° 0 mm 0 mps 754 mmHg 85%
    01:00 +13°C° 0 mm 0 mps 754 mmHg 85%
    02:00 +12°C° 0 mm 0 mps 754 mmHg 85%
    03:00 +12°C° 0 mm 0 mps 754 mmHg 86%
    04:00 +12°C° 0 mm 0 mps 754 mmHg 86%
    05:00 +13°C° 0 mm 1 mps 754 mmHg 87%
    06:00 +13°C° 0 mm 1 mps 754 mmHg 87%
    07:00 +13°C° 0 mm 1 mps 754 mmHg 88%
    08:00 +15°C° 0 mm 1 mps 755 mmHg 79%
    09:00 +18°C° 0 mm 1 mps 755 mmHg 70%
    10:00 +20°C° 0 mm 1 mps 755 mmHg 62%
    11:00 +20°C° 0 mm 2 mps 755 mmHg 56%
    12:00 +23°C° 0 mm 2 mps 754 mmHg 51%
    13:00 +24°C° 0 mm 3 mps 754 mmHg 45%
    14:00 +23°C° 0 mm 2 mps 754 mmHg 48%
    15:00 +21°C° 0 mm 2 mps 753 mmHg 51%
    16:00 +20°C° 0 mm 2 mps 753 mmHg 55%
    17:00 +20°C° 0 mm 1 mps 753 mmHg 59%
    18:00 +19°C° 0 mm 1 mps 753 mmHg 63%
    19:00 +16°C° 0 mm 1 mps 753 mmHg 67%
    20:00 +16°C° 0 mm 1 mps 753 mmHg 69%
    21:00 +16°C° 0 mm 1 mps 753 mmHg 71%
    22:00 +15°C° 0 mm 1 mps 753 mmHg 73%
    23:00 +15°C° 0 mm 1 mps 753 mmHg 76%

    27 October, Sunday

    Time Temperature Precipitation Wind Pressure Humidity
    00:00 +14°C° 0 mm 1 mps 753 mmHg 78%
    01:00 +14°C° 0 mm 1 mps 753 mmHg 80%
    02:00 +14°C° 0 mm 1 mps 752 mmHg 81%
    03:00 +13°C° 0 mm 1 mps 752 mmHg 83%
    04:00 +13°C° 0 mm 1 mps 752 mmHg 84%
    05:00 +13°C° 0 mm 1 mps 752 mmHg 84%
    06:00 +13°C° 0 mm 1 mps 752 mmHg 84%
    07:00 +13°C° 0 mm 1 mps 752 mmHg 84%
    08:00 +15°C° 0 mm 2 mps 753 mmHg 74%
    09:00 +18°C° 0 mm 3 mps 753 mmHg 63%
    10:00 +20°C° 0 mm 4 mps 753 mmHg 53%
    11:00 +20°C° 0 mm 5 mps 753 mmHg 51%
    12:00 +21°C° 0 mm 6 mps 753 mmHg 48%
    13:00 +22°C° 0 mm 6 mps 753 mmHg 46%
    14:00 +21°C° 0 mm 5 mps 753 mmHg 49%
    15:00 +20°C° 0 mm 4 mps 753 mmHg 51%
    16:00 +19°C° 0 mm 3 mps 753 mmHg 54%
    17:00 +18°C° 0 mm 3 mps 753 mmHg 57%
    18:00 +17°C° 0 mm 3 mps 754 mmHg 61%
    19:00 +16°C° 0 mm 3 mps 754 mmHg 64%
    20:00 +14°C° 0 mm 4 mps 754 mmHg 63%
    21:00 +13°C° 0 mm 4 mps 755 mmHg 62%
    22:00 +12°C° 0 mm 4 mps 755 mmHg 61%
    23:00 +12°C° 0 mm 4 mps 755 mmHg 57%

    28 October, Monday

    Time Temperature Precipitation Wind Pressure Humidity
    00:00 +12°C° 0 mm 3 mps 755 mmHg 53%
    01:00 +11°C° 0 mm 3 mps 755 mmHg 49%
    02:00 +11°C° 0 mm 3 mps 755 mmHg 49%
    03:00 +11°C° 0 mm 3 mps 755 mmHg 48%
    04:00 +11°C° 0 mm 3 mps 754 mmHg 48%
    05:00 +10°C° 0.1 mm 3 mps 754 mmHg 51%
    06:00 +10°C° 0.1 mm 2 mps 754 mmHg 55%
    07:00 +10°C° 0.1 mm 2 mps 754 mmHg 58%
    08:00 +9°C° 0.3 mm 2 mps 755 mmHg 63%
    09:00 +9°C° 0.3 mm 2 mps 755 mmHg 68%
    10:00 +8°C° 0.3 mm 2 mps 755 mmHg 73%
    11:00 +8°C° 0.6 mm 2 mps 755 mmHg 77%
    12:00 +8°C° 0.6 mm 2 mps 754 mmHg 80%
    13:00 +8°C° 0.6 mm 2 mps 754 mmHg 84%
    14:00 +9°C° 0.2 mm 1 mps 754 mmHg 83%
    15:00 +9°C° 0.2 mm 1 mps 754 mmHg 83%
    16:00 +9°C° 0.2 mm 1 mps 753 mmHg 83%
    17:00 +9°C° 0 mm 1 mps 753 mmHg 82%
    18:00 +9°C° 0 mm 1 mps 753 mmHg 81%
    19:00 +9°C° 0 mm 1 mps 753 mmHg 81%
    20:00 +9°C° 0 mm 1 mps 753 mmHg 81%
    21:00 +10°C° 0 mm 1 mps 753 mmHg 80%
    22:00 +10°C° 0 mm 1 mps 753 mmHg 80%
    23:00 +10°C° 0.1 mm 1 mps 753 mmHg 80%
    Show more